| time (UTC) | temp F | wind direction | speed MPH | gust MPH | rain 1hr in | rain 24hr in | rain mn in | humidity % | barometer mb |
| 20260506145011 | 74 | 184 | 8.0 | 8.0 | 0.00 | 0.00 | 0.00 | 40 | 1003.0 |
| 20260506144807 | 75 | 162 | 14.0 | 14.0 | 0.00 | 0.00 | 0.00 | 39 | 1003.0 |
| 20260506144607 | 76 | 202 | 14.0 | 14.0 | 0.00 | 0.00 | 0.00 | 37 | 1003.0 |
| 20260506144207 | 75 | 191 | 14.0 | 14.0 | 0.00 | 0.00 | 0.00 | 37 | 1003.0 |
| 20260506144011 | 74 | 156 | 7.0 | 7.0 | 0.00 | 0.00 | 0.00 | 38 | 1003.0 |
| 20260506143810 | 74 | 132 | 7.0 | 7.0 | 0.00 | 0.00 | 0.00 | 39 | 1003.0 |
| 20260506143606 | 73 | 168 | 14.0 | 14.0 | 0.00 | 0.00 | 0.00 | 40 | 1003.0 |
| 20260506143407 | 73 | 113 | 8.0 | 8.0 | 0.00 | 0.00 | 0.00 | 41 | 1003.0 |
| 20260506143206 | 73 | 132 | 7.0 | 7.0 | 0.00 | 0.00 | 0.00 | 42 | 1003.0 |
| 20260506143015 | 73 | 68 | 18.0 | 19.0 | 0.00 | 0.00 | 0.00 | 42 | 1003.0 |
| 20260506142807 | 73 | 246 | 16.0 | 18.0 | 0.00 | 0.00 | 0.00 | 42 | 1003.0 |
| 20260506142607 | 73 | 162 | 8.0 | 8.0 | 0.00 | 0.00 | 0.00 | 43 | 1003.0 |
| 20260506142407 | 73 | 108 | 9.0 | 9.0 | 0.00 | 0.00 | 0.00 | 43 | 1003.0 |
| 20260506142205 | 72 | 156 | 8.0 | 8.0 | 0.00 | 0.00 | 0.00 | 44 | 1003.0 |
| 20260506142012 | 72 | 107 | 9.0 | 9.0 | 0.00 | 0.00 | 0.00 | 44 | 1003.0 |
| 20260506141807 | 73 | 180 | 14.0 | 14.0 | 0.00 | 0.00 | 0.00 | 43 | 1003.0 |
| 20260506141606 | 73 | 114 | 8.0 | 8.0 | 0.00 | 0.00 | 0.00 | 43 | 1003.0 |
| 20260506141207 | 73 | 146 | 8.0 | 8.0 | 0.00 | 0.00 | 0.00 | 43 | 1003.0 |
| 20260506141010 | 73 | 150 | 6.0 | 6.0 | 0.00 | 0.00 | 0.00 | 43 | 1003.0 |
| 20260506140209 | 76 | 72 | 6.0 | 6.0 | 0.00 | 0.00 | 0.00 | 40 | 1003.0 |
| 20260506140020 | 76 | 126 | 14.0 | 14.0 | 0.00 | 0.00 | 0.00 | 40 | 1003.0 |
| 20260506135606 | 75 | 174 | 15.0 | 15.0 | 0.00 | 0.00 | 0.00 | 41 | 1003.0 |
| 20260506135011 | 74 | 197 | 22.0 | 23.0 | 0.00 | 0.00 | 0.00 | 43 | 1003.0 |
| 20260506134806 | 75 | 156 | 7.0 | 7.0 | 0.00 | 0.00 | 0.00 | 41 | 1003.0 |
| 20260506134607 | 77 | 112 | 8.0 | 8.0 | 0.00 | 0.00 | 0.00 | 39 | 1003.0 |
| 20260506134407 | 78 | 166 | 7.0 | 7.0 | 0.00 | 0.00 | 0.00 | 39 | 1003.0 |
| 20260506134207 | 77 | 211 | 14.0 | 14.0 | 0.00 | 0.00 | 0.00 | 39 | 1003.0 |
| 20260506134011 | 77 | 174 | 15.0 | 17.0 | 0.00 | 0.00 | 0.00 | 39 | 1003.0 |
| 20260506133806 | 77 | 174 | 14.0 | 14.0 | 0.00 | 0.00 | 0.00 | 39 | 1003.0 |
| 20260506133606 | 76 | 146 | 18.0 | 19.0 | 0.00 | 0.00 | 0.00 | 39 | 1003.0 |
| 20260506133406 | 76 | 202 | 16.0 | 18.0 | 0.00 | 0.00 | 0.00 | 39 | 1003.0 |
| 20260506133206 | 76 | 90 | 9.0 | 9.0 | 0.00 | 0.00 | 0.00 | 40 | 1003.0 |
| 20260506133015 | 76 | 157 | 14.0 | 14.0 | 0.00 | 0.00 | 0.00 | 40 | 1003.0 |
| 20260506132807 | 77 | 210 | 16.0 | 17.0 | 0.00 | 0.00 | 0.00 | 40 | 1003.0 |
| 20260506132607 | 78 | 162 | 24.0 | 28.0 | 0.00 | 0.00 | 0.00 | 41 | 1003.0 |
| 20260506132408 | 77 | 192 | 18.0 | 19.0 | 0.00 | 0.00 | 0.00 | 41 | 1003.0 |
| 20260506132207 | 76 | 150 | 7.0 | 7.0 | 0.00 | 0.00 | 0.00 | 41 | 1003.0 |
| 20260506131807 | 75 | 198 | 18.0 | 19.0 | 0.00 | 0.00 | 0.00 | 42 | 1003.0 |
| 20260506131605 | 74 | 206 | 9.0 | 9.0 | 0.00 | 0.00 | 0.00 | 43 | 1003.0 |
| 20260506131406 | 74 | 145 | 9.0 | 9.0 | 0.00 | 0.00 | 0.00 | 45 | 1003.0 |
| 20260506131206 | 74 | 166 | 18.0 | 20.0 | 0.00 | 0.00 | 0.00 | 44 | 1003.0 |
| 20260506131011 | 74 | 174 | 7.0 | 7.0 | 0.00 | 0.00 | 0.00 | 43 | 1004.0 |
| 20260506130806 | 73 | 162 | 14.0 | 14.0 | 0.00 | 0.00 | 0.00 | 44 | 1004.0 |
| 20260506130607 | 73 | 162 | 9.0 | 9.0 | 0.00 | 0.00 | 0.00 | 45 | 1004.0 |
| 20260506130407 | 73 | 168 | 9.0 | 9.0 | 0.00 | 0.00 | 0.00 | 46 | 1004.0 |
| 20260506130207 | 73 | 174 | 16.0 | 17.0 | 0.00 | 0.00 | 0.00 | 45 | 1004.0 |
| 20260506130021 | 73 | 168 | 14.0 | 14.0 | 0.00 | 0.00 | 0.00 | 45 | 1004.0 |
| 20260506125805 | 73 | 185 | 7.0 | 7.0 | 0.00 | 0.00 | 0.00 | 44 | 1004.0 |
| 20260506125607 | 73 | 162 | 6.0 | 6.0 | 0.00 | 0.00 | 0.00 | 44 | 1004.0 |
| 20260506125406 | 72 | 209 | 0.0 | 0.0 | 0.00 | 0.00 | 0.00 | 46 | 1004.0 |
| 20260506125206 | 72 | 192 | 22.0 | 24.0 | 0.00 | 0.00 | 0.00 | 46 | 1004.0 |
| 20260506124807 | 71 | 207 | 8.0 | 8.0 | 0.00 | 0.00 | 0.00 | 46 | 1004.0 |
| 20260506124607 | 71 | 120 | 0.0 | 0.0 | 0.00 | 0.00 | 0.00 | 47 | 1004.0 |
| 20260506124011 | 71 | 196 | 17.0 | 18.0 | 0.00 | 0.00 | 0.00 | 47 | 1004.0 |
| 20260506123806 | 71 | 114 | 6.0 | 6.0 | 0.00 | 0.00 | 0.00 | 47 | 1004.0 |
| 20260506123607 | 72 | 189 | 6.0 | 6.0 | 0.00 | 0.00 | 0.00 | 47 | 1004.0 |
| 20260506123207 | 73 | 196 | 18.0 | 20.0 | 0.00 | 0.00 | 0.00 | 44 | 1004.0 |
| 20260506123017 | 73 | 192 | 16.0 | 17.0 | 0.00 | 0.00 | 0.00 | 43 | 1004.0 |
| 20260506122807 | 73 | 192 | 14.0 | 14.0 | 0.00 | 0.00 | 0.00 | 43 | 1004.0 |
| 20260506122407 | 71 | 168 | 5.0 | 5.0 | 0.00 | 0.00 | 0.00 | 45 | 1004.0 |
| 20260506122011 | 71 | 184 | 0.0 | 0.0 | 0.00 | 0.00 | 0.00 | 48 | 1004.0 |
| 20260506121807 | 71 | 184 | 17.0 | 18.0 | 0.00 | 0.00 | 0.00 | 48 | 1004.0 |
| 20260506121607 | 71 | 186 | 14.0 | 14.0 | 0.00 | 0.00 | 0.00 | 46 | 1004.0 |
| 20260506121407 | 72 | 204 | 14.0 | 14.0 | 0.00 | 0.00 | 0.00 | 45 | 1004.0 |
| 20260506121013 | 72 | 204 | 9.0 | 9.0 | 0.00 | 0.00 | 0.00 | 44 | 1004.0 |
| 20260506120607 | 72 | 195 | 9.0 | 9.0 | 0.00 | 0.00 | 0.00 | 44 | 1004.0 |
| 20260506120205 | 72 | 198 | 15.0 | 15.0 | 0.00 | 0.00 | 0.00 | 44 | 1005.0 |
| 20260506120018 | 73 | 174 | 6.0 | 6.0 | 0.00 | 0.00 | 0.00 | 44 | 1004.0 |
| 20260506115807 | 73 | 167 | 7.0 | 7.0 | 0.00 | 0.00 | 0.00 | 43 | 1004.0 |
| 20260506115607 | 73 | 180 | 15.0 | 15.0 | 0.00 | 0.00 | 0.00 | 43 | 1004.0 |
| 20260506115407 | 73 | 198 | 9.0 | 9.0 | 0.00 | 0.00 | 0.00 | 42 | 1004.0 |
| 20260506115207 | 73 | 120 | 8.0 | 8.0 | 0.00 | 0.00 | 0.00 | 42 | 1004.0 |
| 20260506115011 | 73 | 186 | 9.0 | 9.0 | 0.00 | 0.00 | 0.00 | 43 | 1005.0 |
| 20260506114807 | 73 | 198 | 21.0 | 22.0 | 0.00 | 0.00 | 0.00 | 43 | 1005.0 |
| 20260506114606 | 74 | 186 | 20.0 | 21.0 | 0.00 | 0.00 | 0.00 | 42 | 1005.0 |
| 20260506114407 | 75 | 184 | 15.0 | 17.0 | 0.00 | 0.00 | 0.00 | 41 | 1005.0 |
| 20260506114207 | 75 | 144 | 17.0 | 18.0 | 0.00 | 0.00 | 0.00 | 40 | 1005.0 |
| 20260506114012 | 74 | 224 | 9.0 | 9.0 | 0.00 | 0.00 | 0.00 | 40 | 1004.0 |
| 20260506113807 | 74 | 239 | 17.0 | 18.0 | 0.00 | 0.00 | 0.00 | 39 | 1004.0 |
| 20260506113606 | 73 | 168 | 0.0 | 0.0 | 0.00 | 0.00 | 0.00 | 41 | 1004.0 |
| 20260506113407 | 72 | 126 | 8.0 | 8.0 | 0.00 | 0.00 | 0.00 | 42 | 1004.0 |
| 20260506113207 | 72 | 201 | 5.0 | 5.0 | 0.00 | 0.00 | 0.00 | 44 | 1004.0 |
| 20260506113015 | 72 | 192 | 20.0 | 22.0 | 0.00 | 0.00 | 0.00 | 43 | 1005.0 |
| 20260506112606 | 72 | 180 | 7.0 | 7.0 | 0.00 | 0.00 | 0.00 | 43 | 1005.0 |
| 20260506112407 | 71 | 162 | 8.0 | 8.0 | 0.00 | 0.00 | 0.00 | 43 | 1005.0 |
| 20260506112206 | 71 | 128 | 5.0 | 5.0 | 0.00 | 0.00 | 0.00 | 42 | 1005.0 |
| 20260506112012 | 71 | 208 | 9.0 | 9.0 | 0.00 | 0.00 | 0.00 | 44 | 1005.0 |
| 20260506111806 | 71 | 174 | 9.0 | 9.0 | 0.00 | 0.00 | 0.00 | 44 | 1005.0 |
| 20260506111607 | 72 | 180 | 9.0 | 9.0 | 0.00 | 0.00 | 0.00 | 42 | 1005.0 |
| 20260506111407 | 72 | 186 | 7.0 | 7.0 | 0.00 | 0.00 | 0.00 | 42 | 1005.0 |
| 20260506111206 | 73 | 192 | 9.0 | 9.0 | 0.00 | 0.00 | 0.00 | 41 | 1005.0 |
| 20260506111011 | 73 | 192 | 7.0 | 7.0 | 0.00 | 0.00 | 0.00 | 40 | 1005.0 |
| 20260506110807 | 73 | 156 | 5.0 | 5.0 | 0.00 | 0.00 | 0.00 | 41 | 1005.0 |
| 20260506110606 | 73 | 183 | 15.0 | 15.0 | 0.00 | 0.00 | 0.00 | 41 | 1005.0 |
| 20260506110407 | 74 | 167 | 7.0 | 7.0 | 0.00 | 0.00 | 0.00 | 40 | 1005.0 |
| 20260506110207 | 75 | 207 | 14.0 | 14.0 | 0.00 | 0.00 | 0.00 | 39 | 1005.0 |
| 20260506110018 | 76 | 134 | 8.0 | 8.0 | 0.00 | 0.00 | 0.00 | 38 | 1005.0 |
| 20260506105806 | 76 | 162 | 5.0 | 5.0 | 0.00 | 0.00 | 0.00 | 39 | 1005.0 |
| 20260506105607 | 76 | 192 | 7.0 | 7.0 | 0.00 | 0.00 | 0.00 | 40 | 1005.0 |
| 20260506105406 | 75 | 196 | 14.0 | 14.0 | 0.00 | 0.00 | 0.00 | 41 | 1005.0 |
| 20260506105012 | 73 | 192 | 7.0 | 7.0 | 0.00 | 0.00 | 0.00 | 40 | 1005.0 |
| 20260506104607 | 73 | 186 | 7.0 | 7.0 | 0.00 | 0.00 | 0.00 | 44 | 1005.0 |
| 20260506104407 | 73 | 168 | 14.0 | 14.0 | 0.00 | 0.00 | 0.00 | 43 | 1005.0 |
| 20260506104206 | 72 | 144 | 0.0 | 0.0 | 0.00 | 0.00 | 0.00 | 43 | 1005.0 |
| 20260506104013 | 72 | 192 | 8.0 | 8.0 | 0.00 | 0.00 | 0.00 | 43 | 1005.0 |
| 20260506103807 | 72 | 206 | 19.0 | 20.0 | 0.00 | 0.00 | 0.00 | 44 | 1005.0 |
| 20260506103407 | 72 | 183 | 22.0 | 24.0 | 0.00 | 0.00 | 0.00 | 44 | 1005.0 |
| 20260506103205 | 73 | 174 | 8.0 | 8.0 | 0.00 | 0.00 | 0.00 | 45 | 1005.0 |
| 20260506103014 | 73 | 179 | 15.0 | 17.0 | 0.00 | 0.00 | 0.00 | 46 | 1005.0 |
| 20260506102807 | 73 | 211 | 28.0 | 28.0 | 0.00 | 0.00 | 0.00 | 43 | 1005.0 |
| 20260506102607 | 73 | 184 | 14.0 | 14.0 | 0.00 | 0.00 | 0.00 | 45 | 1005.0 |
| 20260506102406 | 73 | 184 | 9.0 | 9.0 | 0.00 | 0.00 | 0.00 | 44 | 1005.0 |
| 20260506102012 | 73 | 150 | 0.0 | 0.0 | 0.00 | 0.00 | 0.00 | 44 | 1005.0 |
| 20260506101808 | 73 | 90 | 7.0 | 7.0 | 0.00 | 0.00 | 0.00 | 44 | 1005.0 |
| 20260506101611 | 72 | 167 | 8.0 | 8.0 | 0.00 | 0.00 | 0.00 | 45 | 1005.0 |
| 20260506101409 | 72 | 153 | 6.0 | 6.0 | 0.00 | 0.00 | 0.00 | 46 | 1005.0 |
| 20260506101207 | 71 | 190 | 9.0 | 9.0 | 0.00 | 0.00 | 0.00 | 47 | 1005.0 |
| 20260506100606 | 71 | 174 | 22.0 | 23.0 | 0.00 | 0.00 | 0.00 | 46 | 1005.0 |
| 20260506100207 | 72 | 184 | 26.0 | 30.0 | 0.00 | 0.00 | 0.00 | 44 | 1005.0 |
| 20260506100021 | 72 | 173 | 5.0 | 5.0 | 0.00 | 0.00 | 0.00 | 44 | 1005.0 |
| 20260506095807 | 72 | 186 | 26.0 | 30.0 | 0.00 | 0.00 | 0.00 | 46 | 1005.0 |
| 20260506095407 | 71 | 192 | 14.0 | 14.0 | 0.00 | 0.00 | 0.00 | 47 | 1005.0 |
| 20260506095207 | 72 | 180 | 25.0 | 25.0 | 0.00 | 0.00 | 0.00 | 47 | 1005.0 |
| 20260506095011 | 73 | 192 | 18.0 | 19.0 | 0.00 | 0.00 | 0.00 | 43 | 1005.0 |
| 20260506094807 | 72 | 210 | 8.0 | 8.0 | 0.00 | 0.00 | 0.00 | 44 | 1005.0 |
| 20260506094406 | 71 | 186 | 7.0 | 7.0 | 0.00 | 0.00 | 0.00 | 47 | 1005.0 |
| 20260506094206 | 70 | 196 | 25.0 | 25.0 | 0.00 | 0.00 | 0.00 | 48 | 1005.0 |
| 20260506094012 | 70 | 180 | 0.0 | 0.0 | 0.00 | 0.00 | 0.00 | 50 | 1005.0 |
| 20260506093606 | 71 | 168 | 22.0 | 24.0 | 0.00 | 0.00 | 0.00 | 47 | 1005.0 |
| 20260506093406 | 71 | 178 | 16.0 | 17.0 | 0.00 | 0.00 | 0.00 | 48 | 1005.0 |
| 20260506093211 | 72 | 180 | 22.0 | 23.0 | 0.00 | 0.00 | 0.00 | 47 | 1005.0 |
| 20260506093016 | 71 | 179 | 6.0 | 6.0 | 0.00 | 0.00 | 0.00 | 50 | 1005.0 |
| 20260506092807 | 71 | 177 | 14.0 | 14.0 | 0.00 | 0.00 | 0.00 | 48 | 1005.0 |
| 20260506092606 | 71 | 189 | 14.0 | 14.0 | 0.00 | 0.00 | 0.00 | 49 | 1005.0 |
| 20260506092407 | 71 | 168 | 8.0 | 8.0 | 0.00 | 0.00 | 0.00 | 47 | 1005.0 |
| 20260506092207 | 70 | 138 | 5.0 | 5.0 | 0.00 | 0.00 | 0.00 | 49 | 1005.0 |
| 20260506092011 | 70 | 184 | 14.0 | 14.0 | 0.00 | 0.00 | 0.00 | 49 | 1005.0 |
| 20260506091807 | 69 | 179 | 5.0 | 5.0 | 0.00 | 0.00 | 0.00 | 51 | 1005.0 |
| 20260506091407 | 69 | 185 | 15.0 | 17.0 | 0.00 | 0.00 | 0.00 | 52 | 1005.0 |
| 20260506091207 | 69 | 186 | 19.0 | 20.0 | 0.00 | 0.00 | 0.00 | 51 | 1005.0 |
| 20260506091011 | 68 | 180 | 5.0 | 5.0 | 0.00 | 0.00 | 0.00 | 53 | 1005.0 |
| 20260506090807 | 68 | 179 | 25.0 | 28.0 | 0.00 | 0.00 | 0.00 | 52 | 1005.0 |
| 20260506090712 | 68 | 174 | 14.0 | 14.0 | 0.00 | 0.00 | 0.00 | 55 | 1005.0 |
| 20260506090411 | 68 | 172 | 9.0 | 9.0 | 0.00 | 0.00 | 0.00 | 54 | 1006.0 |
| 20260506090219 | 69 | 174 | 0.0 | 0.0 | 0.00 | 0.00 | 0.00 | 53 | 1006.0 |
| 20260506090031 | 69 | 192 | 8.0 | 8.0 | 0.00 | 0.00 | 0.00 | 53 | 1006.0 |
| 20260506085813 | 69 | 156 | 7.0 | 7.0 | 0.00 | 0.00 | 0.00 | 53 | 1006.0 |
| 20260506085507 | 70 | 198 | 22.0 | 23.0 | 0.00 | 0.00 | 0.00 | 50 | 1005.0 |
| 20260506085208 | 70 | 192 | 7.0 | 7.0 | 0.00 | 0.00 | 0.00 | 51 | 1005.0 |
| 20260506085012 | 69 | 191 | 8.0 | 8.0 | 0.00 | 0.00 | 0.00 | 53 | 1005.0 |
| 20260506084807 | 69 | 198 | 18.0 | 19.0 | 0.00 | 0.00 | 0.00 | 51 | 1005.0 |
| 20260506084622 | 69 | 198 | 9.0 | 9.0 | 0.00 | 0.00 | 0.00 | 53 | 1005.0 |
| 20260506084207 | 69 | 174 | 22.0 | 24.0 | 0.00 | 0.00 | 0.00 | 51 | 1005.0 |
| 20260506084013 | 70 | 102 | 6.0 | 6.0 | 0.00 | 0.00 | 0.00 | 49 | 1005.0 |
| 20260506083807 | 70 | 126 | 5.0 | 5.0 | 0.00 | 0.00 | 0.00 | 50 | 1005.0 |
| 20260506083608 | 70 | 189 | 17.0 | 18.0 | 0.00 | 0.00 | 0.00 | 50 | 1005.0 |
| 20260506083424 | 70 | 156 | 6.0 | 6.0 | 0.00 | 0.00 | 0.00 | 52 | 1006.0 |
| 20260506083023 | 69 | 146 | 6.0 | 6.0 | 0.00 | 0.00 | 0.00 | 53 | 1006.0 |
| 20260506082613 | 68 | 185 | 0.0 | 0.0 | 0.00 | 0.00 | 0.00 | 53 | 1006.0 |
| 20260506082407 | 68 | 180 | 14.0 | 14.0 | 0.00 | 0.00 | 0.00 | 54 | 1006.0 |
| 20260506082210 | 68 | 204 | 15.0 | 15.0 | 0.00 | 0.00 | 0.00 | 55 | 1006.0 |
| 20260506082012 | 68 | 197 | 18.0 | 19.0 | 0.00 | 0.00 | 0.00 | 52 | 1006.0 |
| 20260506081807 | 67 | 185 | 17.0 | 18.0 | 0.00 | 0.00 | 0.00 | 53 | 1006.0 |
| 20260506081606 | 67 | 168 | 8.0 | 8.0 | 0.00 | 0.00 | 0.00 | 59 | 1006.0 |
| 20260506081207 | 67 | 190 | 18.0 | 19.0 | 0.00 | 0.00 | 0.00 | 55 | 1006.0 |
| 20260506081013 | 67 | 192 | 9.0 | 9.0 | 0.00 | 0.00 | 0.00 | 56 | 1006.0 |
| 20260506080807 | 67 | 186 | 14.0 | 14.0 | 0.00 | 0.00 | 0.00 | 56 | 1006.0 |
| 20260506080606 | 66 | 198 | 0.0 | 0.0 | 0.00 | 0.00 | 0.00 | 59 | 1006.0 |
| 20260506080205 | 66 | 174 | 7.0 | 7.0 | 0.00 | 0.00 | 0.00 | 61 | 1005.0 |
| 20260506073409 | 65 | 210 | 15.0 | 15.0 | 0.00 | 0.00 | 0.00 | 59 | 1006.0 |
| 20260506073207 | 64 | 216 | 14.0 | 14.0 | 0.00 | 0.00 | 0.00 | 60 | 1006.0 |
| 20260506073015 | 64 | 168 | 14.0 | 14.0 | 0.00 | 0.00 | 0.00 | 59 | 1006.0 |
| 20260506072807 | 64 | 174 | 14.0 | 14.0 | 0.00 | 0.00 | 0.00 | 63 | 1006.0 |
| 20260506072607 | 64 | 180 | 9.0 | 9.0 | 0.00 | 0.00 | 0.00 | 64 | 1006.0 |
| 20260506072408 | 64 | 186 | 16.0 | 18.0 | 0.00 | 0.00 | 0.00 | 63 | 1006.0 |
| 20260506072207 | 65 | 180 | 23.0 | 25.0 | 0.00 | 0.00 | 0.00 | 61 | 1006.0 |
| 20260506072011 | 64 | 185 | 15.0 | 15.0 | 0.00 | 0.00 | 0.00 | 63 | 1006.0 |
| 20260506071807 | 64 | 180 | 8.0 | 8.0 | 0.00 | 0.00 | 0.00 | 64 | 1006.0 |
| 20260506071606 | 64 | 186 | 9.0 | 9.0 | 0.00 | 0.00 | 0.00 | 63 | 1006.0 |
| 20260506071406 | 64 | 192 | 14.0 | 14.0 | 0.00 | 0.00 | 0.00 | 66 | 1006.0 |
| 20260506071205 | 64 | 186 | 14.0 | 14.0 | 0.00 | 0.00 | 0.00 | 64 | 1006.0 |
| 20260506071009 | 64 | 180 | 19.0 | 20.0 | 0.00 | 0.00 | 0.00 | 65 | 1006.0 |
| 20260506070805 | 64 | 190 | 18.0 | 19.0 | 0.00 | 0.00 | 0.00 | 65 | 1006.0 |
| 20260506070605 | 64 | 186 | 20.0 | 22.0 | 0.00 | 0.00 | 0.00 | 64 | 1006.0 |
| 20260506070407 | 64 | 178 | 8.0 | 8.0 | 0.00 | 0.00 | 0.00 | 63 | 1006.0 |
| 20260506070206 | 64 | 168 | 9.0 | 9.0 | 0.00 | 0.00 | 0.00 | 64 | 1006.0 |
| 20260506062407 | 62 | 214 | 14.0 | 14.0 | 0.00 | 0.00 | 0.00 | 71 | 1006.0 |
| 20260506062205 | 62 | 180 | 14.0 | 14.0 | 0.00 | 0.00 | 0.00 | 69 | 1006.0 |
| 20260506062012 | 62 | 186 | 6.0 | 6.0 | 0.00 | 0.00 | 0.00 | 71 | 1006.0 |
| 20260506061807 | 61 | 180 | 0.0 | 0.0 | 0.00 | 0.00 | 0.00 | 70 | 1006.0 |
| 20260506061405 | 61 | 174 | 0.0 | 0.0 | 0.00 | 0.00 | 0.00 | 72 | 1006.0 |
| 20260506061011 | 60 | 186 | 8.0 | 8.0 | 0.00 | 0.00 | 0.00 | 73 | 1006.0 |
| 20260506060805 | 60 | 178 | 6.0 | 6.0 | 0.00 | 0.00 | 0.00 | 72 | 1006.0 |
| 20260506060607 | 60 | 174 | 8.0 | 8.0 | 0.00 | 0.00 | 0.00 | 74 | 1006.0 |
| 20260506060405 | 60 | 173 | 15.0 | 15.0 | 0.00 | 0.00 | 0.00 | 74 | 1006.0 |
| 20260506051407 | 56 | 186 | 9.0 | 9.0 | 0.00 | 0.00 | 0.00 | 84 | 1006.0 |
| 20260506051207 | 55 | 174 | 9.0 | 9.0 | 0.00 | 0.00 | 0.00 | 83 | 1006.0 |
| 20260506051011 | 55 | 179 | 9.0 | 9.0 | 0.00 | 0.00 | 0.00 | 86 | 1006.0 |
| 20260506050807 | 55 | 192 | 7.0 | 7.0 | 0.00 | 0.00 | 0.00 | 87 | 1006.0 |
| 20260506050407 | 54 | 192 | 8.0 | 8.0 | 0.00 | 0.00 | 0.00 | 86 | 1005.0 |
| 20260506050207 | 54 | 174 | 9.0 | 9.0 | 0.00 | 0.00 | 0.00 | 85 | 1005.0 |
| 20260506045012 | 52 | 286 | 6.0 | 6.0 | 0.00 | 0.00 | 0.00 | 87 | 1005.0 |
| 20260506044807 | 52 | 287 | 6.0 | 6.0 | 0.00 | 0.00 | 0.00 | 88 | 1005.0 |
| 20260506044607 | 53 | 287 | 0.0 | 0.0 | 0.00 | 0.00 | 0.00 | 88 | 1005.0 |
| 20260506044205 | 52 | 287 | 0.0 | 0.0 | 0.00 | 0.00 | 0.00 | 87 | 1005.0 |
| 20260506043807 | 52 | 287 | 0.0 | 0.0 | 0.00 | 0.00 | 0.00 | 89 | 1005.0 |
| 20260506043606 | 52 | 287 | 0.0 | 0.0 | 0.00 | 0.00 | 0.00 | 89 | 1005.0 |
| 20260506043407 | 52 | 287 | 0.0 | 0.0 | 0.00 | 0.00 | 0.00 | 88 | 1005.0 |
| 20260506043015 | 51 | 287 | 0.0 | 0.0 | 0.00 | 0.00 | 0.00 | 90 | 1005.0 |
| 20260506042807 | 51 | 287 | 0.0 | 0.0 | 0.00 | 0.00 | 0.00 | 88 | 1005.0 |
| 20260506042406 | 50 | 287 | 5.0 | 5.0 | 0.00 | 0.00 | 0.00 | 89 | 1005.0 |
| 20260506042206 | 49 | 288 | 6.0 | 6.0 | 0.00 | 0.00 | 0.00 | 91 | 1005.0 |
| 20260506042010 | 49 | 288 | 6.0 | 6.0 | 0.00 | 0.00 | 0.00 | 93 | 1005.0 |
| 20260506041807 | 48 | 288 | 0.0 | 0.0 | 0.00 | 0.00 | 0.00 | 94 | 1005.0 |
| 20260506041607 | 48 | 288 | 0.0 | 0.0 | 0.00 | 0.00 | 0.00 | 94 | 1005.0 |
| 20260506041406 | 48 | 288 | 0.0 | 0.0 | 0.00 | 0.00 | 0.00 | 95 | 1005.0 |
| 20260506041206 | 47 | 288 | 0.0 | 0.0 | 0.00 | 0.00 | 0.00 | 96 | 1005.0 |
| 20260506041008 | 47 | 288 | 0.0 | 0.0 | 0.00 | 0.00 | 0.00 | 97 | 1005.0 |
| 20260506040807 | 46 | 288 | 0.0 | 0.0 | 0.00 | 0.00 | 0.00 | 97 | 1005.0 |
| 20260506040407 | 45 | 288 | 0.0 | 0.0 | 0.00 | 0.00 | 0.00 | 96 | 1005.0 |
| 20260506040207 | 45 | 288 | 0.0 | 0.0 | 0.00 | 0.00 | 0.00 | 97 | 1005.0 |
| 20260506040019 | 45 | 288 | 0.0 | 0.0 | 0.00 | 0.00 | 0.00 | 97 | 1005.0 |
| 20260506035806 | 45 | 288 | 0.0 | 0.0 | 0.00 | 0.00 | 0.00 | 96 | 1005.0 |
| 20260506035606 | 45 | 288 | 0.0 | 0.0 | 0.00 | 0.00 | 0.00 | 98 | 1005.0 |
| 20260506035407 | 45 | 288 | 6.0 | 6.0 | 0.00 | 0.00 | 0.00 | 97 | 1005.0 |
| 20260506034806 | 46 | 288 | 0.0 | 0.0 | 0.00 | 0.00 | 0.00 | 98 | 1005.0 |
| 20260506034606 | 46 | 288 | 0.0 | 0.0 | 0.00 | 0.00 | 0.00 | 98 | 1005.0 |
| 20260506034406 | 46 | 288 | 0.0 | 0.0 | 0.00 | 0.00 | 0.00 | 98 | 1005.0 |
| 20260506034207 | 46 | 288 | 0.0 | 0.0 | 0.00 | 0.00 | 0.00 | 98 | 1005.0 |
| 20260506034011 | 46 | 288 | 0.0 | 0.0 | 0.00 | 0.00 | 0.00 | 98 | 1005.0 |
| 20260506033806 | 46 | 288 | 0.0 | 0.0 | 0.00 | 0.00 | 0.00 | 98 | 1005.0 |
| 20260506033606 | 46 | 288 | 0.0 | 0.0 | 0.00 | 0.00 | 0.00 | 98 | 1005.0 |
| 20260506033406 | 46 | 288 | 0.0 | 0.0 | 0.00 | 0.00 | 0.00 | 97 | 1004.0 |
| 20260506033207 | 46 | 288 | 0.0 | 0.0 | 0.00 | 0.00 | 0.00 | 97 | 1004.0 |
| 20260506033014 | 46 | 288 | 0.0 | 0.0 | 0.00 | 0.00 | 0.00 | 97 | 1005.0 |
| 20260506032807 | 46 | 288 | 0.0 | 0.0 | 0.00 | 0.00 | 0.00 | 97 | 1005.0 |
| 20260506032605 | 46 | 288 | 0.0 | 0.0 | 0.00 | 0.00 | 0.00 | 97 | 1005.0 |
| 20260506032206 | 46 | 288 | 0.0 | 0.0 | 0.00 | 0.00 | 0.00 | 96 | 1005.0 |
| 20260506032011 | 46 | 288 | 5.0 | 5.0 | 0.00 | 0.00 | 0.00 | 96 | 1005.0 |
| 20260506031807 | 46 | 288 | 5.0 | 5.0 | 0.00 | 0.00 | 0.00 | 96 | 1005.0 |
| 20260506031606 | 46 | 288 | 0.0 | 0.0 | 0.00 | 0.00 | 0.00 | 96 | 1005.0 |
| 20260506031407 | 46 | 288 | 5.0 | 5.0 | 0.00 | 0.00 | 0.00 | 96 | 1005.0 |
| 20260506031206 | 46 | 288 | 0.0 | 0.0 | 0.00 | 0.00 | 0.00 | 96 | 1005.0 |
| 20260506031010 | 46 | 288 | 0.0 | 0.0 | 0.00 | 0.00 | 0.00 | 96 | 1005.0 |
| 20260506030806 | 46 | 288 | 0.0 | 0.0 | 0.00 | 0.00 | 0.00 | 96 | 1005.0 |
| 20260506030407 | 46 | 288 | 0.0 | 0.0 | 0.00 | 0.00 | 0.00 | 96 | 1005.0 |
| 20260506030207 | 46 | 288 | 0.0 | 0.0 | 0.00 | 0.00 | 0.00 | 96 | 1005.0 |
| 20260506030019 | 46 | 288 | 5.0 | 5.0 | 0.00 | 0.00 | 0.00 | 96 | 1005.0 |
| 20260506025806 | 46 | 288 | 0.0 | 0.0 | 0.00 | 0.00 | 0.00 | 95 | 1005.0 |
| 20260506025606 | 46 | 288 | 6.0 | 6.0 | 0.00 | 0.00 | 0.00 | 95 | 1005.0 |
| 20260506025407 | 46 | 288 | 8.0 | 8.0 | 0.00 | 0.00 | 0.00 | 95 | 1004.0 |
| 20260506025206 | 46 | 288 | 5.0 | 5.0 | 0.00 | 0.00 | 0.00 | 94 | 1004.0 |
| 20260506025010 | 46 | 288 | 7.0 | 7.0 | 0.00 | 0.00 | 0.00 | 93 | 1005.0 |
| 20260506024806 | 47 | 288 | 6.0 | 6.0 | 0.00 | 0.00 | 0.00 | 93 | 1005.0 |
| 20260506024611 | 48 | 288 | 7.0 | 7.0 | 0.00 | 0.00 | 0.00 | 95 | 1005.0 |
| 20260506024406 | 48 | 288 | 6.0 | 6.0 | 0.00 | 0.00 | 0.00 | 94 | 1004.0 |
| 20260506024206 | 47 | 288 | 8.0 | 8.0 | 0.00 | 0.00 | 0.00 | 94 | 1004.0 |
| 20260506023806 | 47 | 288 | 6.0 | 6.0 | 0.00 | 0.00 | 0.00 | 94 | 1004.0 |
| 20260506023606 | 47 | 288 | 7.0 | 7.0 | 0.00 | 0.00 | 0.00 | 93 | 1004.0 |
| 20260506023406 | 48 | 288 | 5.0 | 5.0 | 0.00 | 0.00 | 0.00 | 92 | 1005.0 |
| 20260506023206 | 48 | 288 | 0.0 | 0.0 | 0.00 | 0.00 | 0.00 | 90 | 1005.0 |
| 20260506023013 | 48 | 288 | 0.0 | 0.0 | 0.00 | 0.00 | 0.00 | 90 | 1005.0 |
| 20260506022806 | 49 | 288 | 7.0 | 7.0 | 0.00 | 0.00 | 0.00 | 91 | 1005.0 |
| 20260506022206 | 50 | 288 | 0.0 | 0.0 | 0.00 | 0.00 | 0.00 | 91 | 1004.0 |
| 20260506022010 | 51 | 288 | 0.0 | 0.0 | 0.00 | 0.00 | 0.00 | 91 | 1005.0 |
| 20260506021807 | 51 | 288 | 0.0 | 0.0 | 0.00 | 0.00 | 0.00 | 93 | 1005.0 |
| 20260506021607 | 51 | 288 | 0.0 | 0.0 | 0.00 | 0.00 | 0.00 | 93 | 1005.0 |
| 20260506021206 | 52 | 288 | 0.0 | 0.0 | 0.00 | 0.00 | 0.00 | 91 | 1005.0 |
| 20260506021011 | 52 | 288 | 0.0 | 0.0 | 0.00 | 0.00 | 0.00 | 90 | 1005.0 |
| 20260506020806 | 52 | 288 | 0.0 | 0.0 | 0.00 | 0.00 | 0.00 | 91 | 1005.0 |
| 20260506020606 | 52 | 288 | 0.0 | 0.0 | 0.00 | 0.00 | 0.00 | 91 | 1005.0 |
| 20260506020022 | 53 | 288 | 0.0 | 0.0 | 0.00 | 0.00 | 0.00 | 89 | 1004.0 |
| 20260506015406 | 53 | 288 | 0.0 | 0.0 | 0.00 | 0.00 | 0.00 | 89 | 1005.0 |
| 20260506015206 | 53 | 288 | 0.0 | 0.0 | 0.00 | 0.00 | 0.00 | 89 | 1005.0 |
| 20260506015010 | 53 | 288 | 0.0 | 0.0 | 0.00 | 0.00 | 0.00 | 88 | 1004.0 |
| 20260506014807 | 54 | 288 | 0.0 | 0.0 | 0.00 | 0.00 | 0.00 | 87 | 1004.0 |
| 20260506014606 | 54 | 288 | 6.0 | 6.0 | 0.00 | 0.00 | 0.00 | 87 | 1004.0 |
| 20260506014406 | 54 | 288 | 7.0 | 7.0 | 0.00 | 0.00 | 0.00 | 87 | 1004.0 |
| 20260506014207 | 54 | 288 | 8.0 | 8.0 | 0.00 | 0.00 | 0.00 | 86 | 1004.0 |
| 20260506014011 | 54 | 291 | 8.0 | 8.0 | 0.00 | 0.00 | 0.00 | 86 | 1004.0 |
| 20260506013807 | 55 | 294 | 9.0 | 9.0 | 0.00 | 0.00 | 0.00 | 85 | 1004.0 |
| 20260506013606 | 55 | 294 | 9.0 | 9.0 | 0.00 | 0.00 | 0.00 | 85 | 1004.0 |
| 20260506013015 | 56 | 294 | 8.0 | 8.0 | 0.00 | 0.00 | 0.00 | 83 | 1004.0 |
| 20260506012807 | 56 | 298 | 9.0 | 9.0 | 0.00 | 0.00 | 0.00 | 83 | 1004.0 |
| 20260506012607 | 56 | 258 | 9.0 | 9.0 | 0.00 | 0.00 | 0.00 | 82 | 1004.0 |
| 20260506012406 | 56 | 270 | 14.0 | 14.0 | 0.00 | 0.00 | 0.00 | 81 | 1004.0 |
| 20260506012206 | 56 | 300 | 14.0 | 14.0 | 0.00 | 0.00 | 0.00 | 81 | 1004.0 |
| 20260506012011 | 56 | 292 | 18.0 | 19.0 | 0.00 | 0.00 | 0.00 | 81 | 1004.0 |
| 20260506011607 | 56 | 288 | 8.0 | 8.0 | 0.00 | 0.00 | 0.00 | 81 | 1004.0 |
| 20260506011407 | 56 | 274 | 9.0 | 9.0 | 0.00 | 0.00 | 0.00 | 81 | 1004.0 |
| 20260506011207 | 56 | 279 | 15.0 | 15.0 | 0.00 | 0.00 | 0.00 | 81 | 1004.0 |
| 20260506011011 | 56 | 286 | 16.0 | 17.0 | 0.00 | 0.00 | 0.00 | 81 | 1004.0 |
| 20260506010806 | 57 | 288 | 8.0 | 8.0 | 0.00 | 0.00 | 0.00 | 80 | 1004.0 |
| 20260506010406 | 57 | 294 | 32.0 | 34.0 | 0.00 | 0.00 | 0.00 | 79 | 1004.0 |
| 20260506010020 | 57 | 300 | 23.0 | 25.0 | 0.00 | 0.00 | 0.00 | 78 | 1004.0 |
| 20260506005806 | 58 | 288 | 25.0 | 25.0 | 0.00 | 0.00 | 0.00 | 77 | 1004.0 |
| 20260506005405 | 58 | 288 | 19.0 | 20.0 | 0.00 | 0.00 | 0.00 | 77 | 1003.0 |
| 20260506005207 | 58 | 6 | 25.0 | 28.0 | 0.00 | 0.00 | 0.00 | 77 | 1003.0 |
| 20260506005010 | 58 | 300 | 23.0 | 25.0 | 0.00 | 0.00 | 0.00 | 77 | 1003.0 |
| 20260506004806 | 57 | 270 | 31.0 | 32.0 | 0.00 | 0.00 | 0.00 | 77 | 1003.0 |
| 20260506004606 | 57 | 294 | 22.0 | 24.0 | 0.00 | 0.00 | 0.00 | 77 | 1003.0 |
| 20260506004206 | 57 | 282 | 20.0 | 21.0 | 0.00 | 0.00 | 0.00 | 77 | 1003.0 |
| 20260506004010 | 57 | 300 | 22.0 | 23.0 | 0.00 | 0.00 | 0.00 | 76 | 1003.0 |
| 20260506003807 | 57 | 300 | 15.0 | 15.0 | 0.00 | 0.00 | 0.00 | 77 | 1003.0 |
| 20260506003606 | 58 | 318 | 22.0 | 23.0 | 0.00 | 0.00 | 0.00 | 76 | 1003.0 |
| 20260506003406 | 58 | 294 | 30.0 | 31.0 | 0.00 | 0.00 | 0.00 | 76 | 1003.0 |
| 20260506003207 | 58 | 300 | 34.0 | 41.0 | 0.00 | 0.00 | 0.00 | 76 | 1003.0 |
| 20260506003015 | 58 | 279 | 40.0 | 44.0 | 0.00 | 0.00 | 0.00 | 75 | 1003.0 |
| 20260506002807 | 58 | 262 | 47.0 | 53.0 | 0.00 | 0.00 | 0.00 | 75 | 1003.0 |
| 20260506002605 | 58 | 280 | 39.0 | 44.0 | 0.00 | 0.00 | 0.00 | 76 | 1003.0 |
| 20260506002406 | 58 | 306 | 43.0 | 46.0 | 0.00 | 0.00 | 0.00 | 75 | 1003.0 |
| 20260506002206 | 58 | 287 | 43.0 | 49.0 | 0.00 | 0.00 | 0.00 | 75 | 1003.0 |
| 20260506002012 | 58 | 287 | 40.0 | 43.0 | 0.00 | 0.00 | 0.00 | 75 | 1003.0 |
| 20260506001807 | 58 | 288 | 42.0 | 47.0 | 0.00 | 0.00 | 0.00 | 74 | 1003.0 |
| 20260506001406 | 58 | 282 | 38.0 | 39.0 | 0.00 | 0.00 | 0.00 | 75 | 1003.0 |
| 20260506001011 | 58 | 258 | 45.0 | 47.0 | 0.00 | 0.00 | 0.00 | 75 | 1003.0 |
| 20260506000607 | 57 | 324 | 33.0 | 38.0 | 0.00 | 0.00 | 0.00 | 75 | 1003.0 |
| 20260506000408 | 57 | 318 | 39.0 | 43.0 | 0.00 | 0.00 | 0.00 | 75 | 1004.0 |
| 20260506000207 | 57 | 294 | 31.0 | 31.0 | 0.00 | 0.00 | 0.00 | 75 | 1004.0 |
| 20260505235807 | 56 | 276 | 22.0 | 24.0 | 0.00 | 0.00 | 0.00 | 77 | 1004.0 |
| 20260505235605 | 56 | 282 | 16.0 | 17.0 | 0.00 | 0.00 | 0.00 | 76 | 1004.0 |
| 20260505235406 | 56 | 269 | 18.0 | 19.0 | 0.00 | 0.00 | 0.00 | 74 | 1004.0 |
| 20260505235206 | 56 | 286 | 8.0 | 8.0 | 0.00 | 0.00 | 0.00 | 75 | 1004.0 |
| 20260505235011 | 56 | 294 | 6.0 | 6.0 | 0.00 | 0.00 | 0.00 | 75 | 1004.0 |
| 20260505234807 | 56 | 294 | 6.0 | 6.0 | 0.00 | 0.00 | 0.00 | 74 | 1004.0 |
| 20260505234606 | 56 | 294 | 0.0 | 0.0 | 0.00 | 0.00 | 0.00 | 74 | 1004.0 |
| 20260505234406 | 56 | 294 | 0.0 | 0.0 | 0.00 | 0.00 | 0.00 | 75 | 1004.0 |
| 20260505234206 | 56 | 294 | 0.0 | 0.0 | 0.00 | 0.00 | 0.00 | 74 | 1004.0 |
| 20260505234010 | 56 | 294 | 8.0 | 8.0 | 0.00 | 0.00 | 0.00 | 73 | 1004.0 |
| 20260505233807 | 56 | 306 | 6.0 | 6.0 | 0.00 | 0.00 | 0.00 | 73 | 1004.0 |
| 20260505233606 | 56 | 306 | 6.0 | 6.0 | 0.00 | 0.00 | 0.00 | 73 | 1004.0 |
| 20260505233407 | 56 | 306 | 5.0 | 5.0 | 0.00 | 0.00 | 0.00 | 72 | 1003.0 |
| 20260505233206 | 56 | 306 | 7.0 | 7.0 | 0.00 | 0.00 | 0.00 | 72 | 1003.0 |
| 20260505233015 | 56 | 306 | 9.0 | 9.0 | 0.00 | 0.00 | 0.00 | 72 | 1003.0 |
| 20260505232806 | 55 | 318 | 8.0 | 8.0 | 0.00 | 0.00 | 0.00 | 71 | 1003.0 |
| 20260505232606 | 55 | 332 | 8.0 | 8.0 | 0.00 | 0.00 | 0.00 | 71 | 1003.0 |
| 20260505232410 | 54 | 294 | 9.0 | 9.0 | 0.00 | 0.00 | 0.00 | 72 | 1003.0 |
| 20260505232207 | 53 | 294 | 15.0 | 15.0 | 0.00 | 0.00 | 0.00 | 74 | 1003.0 |
| 20260505232010 | 54 | 246 | 0.0 | 0.0 | 0.00 | 0.00 | 0.00 | 78 | 1003.0 |
| 20260505231807 | 54 | 246 | 0.0 | 0.0 | 0.00 | 0.00 | 0.00 | 78 | 1003.0 |
| 20260505231606 | 54 | 246 | 0.0 | 0.0 | 0.00 | 0.00 | 0.00 | 78 | 1003.0 |
| 20260505231206 | 54 | 246 | 6.0 | 6.0 | 0.00 | 0.00 | 0.00 | 76 | 1003.0 |
| 20260505230806 | 54 | 246 | 0.0 | 0.0 | 0.00 | 0.00 | 0.00 | 76 | 1003.0 |
| 20260505230607 | 54 | 246 | 0.0 | 0.0 | 0.00 | 0.00 | 0.00 | 76 | 1003.0 |
| 20260505230206 | 54 | 246 | 0.0 | 0.0 | 0.00 | 0.00 | 0.00 | 75 | 1003.0 |
| 20260505230019 | 54 | 246 | 0.0 | 0.0 | 0.00 | 0.00 | 0.00 | 76 | 1003.0 |
| 20260505225807 | 54 | 246 | 0.0 | 0.0 | 0.00 | 0.00 | 0.00 | 75 | 1003.0 |
| 20260505225607 | 54 | 246 | 0.0 | 0.0 | 0.00 | 0.00 | 0.00 | 75 | 1003.0 |
| 20260505225406 | 55 | 228 | 8.0 | 8.0 | 0.00 | 0.00 | 0.00 | 73 | 1003.0 |
| 20260505225206 | 55 | 162 | 0.0 | 0.0 | 0.00 | 0.00 | 0.00 | 73 | 1003.0 |
| 20260505225009 | 55 | 162 | 0.0 | 0.0 | 0.00 | 0.00 | 0.00 | 73 | 1003.0 |
| 20260505224806 | 55 | 162 | 0.0 | 0.0 | 0.00 | 0.00 | 0.00 | 72 | 1003.0 |
| 20260505224206 | 56 | 162 | 5.0 | 5.0 | 0.00 | 0.00 | 0.00 | 72 | 1003.0 |
| 20260505223806 | 56 | 162 | 6.0 | 6.0 | 0.00 | 0.00 | 0.00 | 70 | 1003.0 |
| 20260505223406 | 56 | 162 | 7.0 | 7.0 | 0.00 | 0.00 | 0.00 | 69 | 1003.0 |
| 20260505223206 | 57 | 162 | 7.0 | 7.0 | 0.00 | 0.00 | 0.00 | 68 | 1003.0 |
| 20260505223015 | 57 | 162 | 6.0 | 6.0 | 0.00 | 0.00 | 0.00 | 68 | 1003.0 |
| 20260505222806 | 57 | 138 | 9.0 | 9.0 | 0.00 | 0.00 | 0.00 | 67 | 1003.0 |
| 20260505222607 | 57 | 108 | 7.0 | 7.0 | 0.00 | 0.00 | 0.00 | 67 | 1003.0 |
| 20260505222406 | 57 | 108 | 0.0 | 0.0 | 0.00 | 0.00 | 0.00 | 67 | 1003.0 |
| 20260505222206 | 57 | 108 | 0.0 | 0.0 | 0.00 | 0.00 | 0.00 | 67 | 1003.0 |
| 20260505222012 | 57 | 108 | 0.0 | 0.0 | 0.00 | 0.00 | 0.00 | 67 | 1003.0 |
| 20260505221806 | 57 | 108 | 0.0 | 0.0 | 0.00 | 0.00 | 0.00 | 67 | 1003.0 |
| 20260505221606 | 57 | 162 | 0.0 | 0.0 | 0.00 | 0.00 | 0.00 | 67 | 1003.0 |
| 20260505221406 | 57 | 162 | 0.0 | 0.0 | 0.00 | 0.00 | 0.00 | 67 | 1003.0 |
| 20260505221207 | 57 | 174 | 5.0 | 5.0 | 0.00 | 0.00 | 0.00 | 67 | 1003.0 |
| 20260505221012 | 57 | 174 | 0.0 | 0.0 | 0.00 | 0.00 | 0.00 | 68 | 1003.0 |
| 20260505220806 | 57 | 174 | 0.0 | 0.0 | 0.00 | 0.00 | 0.00 | 67 | 1003.0 |
| 20260505220606 | 57 | 174 | 0.0 | 0.0 | 0.00 | 0.00 | 0.00 | 68 | 1003.0 |
| 20260505220406 | 57 | 174 | 0.0 | 0.0 | 0.00 | 0.00 | 0.00 | 68 | 1003.0 |
| 20260505220207 | 57 | 174 | 0.0 | 0.0 | 0.00 | 0.00 | 0.00 | 67 | 1003.0 |
| 20260505220019 | 57 | 174 | 9.0 | 9.0 | 0.00 | 0.00 | 0.00 | 67 | 1003.0 |
| 20260505215806 | 57 | 162 | 0.0 | 0.0 | 0.00 | 0.00 | 0.00 | 66 | 1003.0 |
| 20260505215607 | 57 | 162 | 6.0 | 6.0 | 0.00 | 0.00 | 0.00 | 66 | 1003.0 |
| 20260505215406 | 58 | 162 | 0.0 | 0.0 | 0.00 | 0.00 | 0.00 | 66 | 1003.0 |
| 20260505215206 | 58 | 162 | 0.0 | 0.0 | 0.00 | 0.00 | 0.00 | 65 | 1003.0 |
| 20260505215011 | 58 | 162 | 5.0 | 5.0 | 0.00 | 0.00 | 0.00 | 65 | 1003.0 |
| 20260505214807 | 58 | 144 | 0.0 | 0.0 | 0.00 | 0.00 | 0.00 | 65 | 1003.0 |
| 20260505214606 | 58 | 144 | 0.0 | 0.0 | 0.00 | 0.00 | 0.00 | 65 | 1003.0 |
| 20260505214406 | 58 | 138 | 0.0 | 0.0 | 0.00 | 0.00 | 0.00 | 65 | 1003.0 |
| 20260505214206 | 58 | 120 | 0.0 | 0.0 | 0.00 | 0.00 | 0.00 | 65 | 1003.0 |
| 20260505214011 | 58 | 162 | 0.0 | 0.0 | 0.00 | 0.00 | 0.00 | 65 | 1003.0 |
| 20260505213806 | 58 | 162 | 0.0 | 0.0 | 0.00 | 0.00 | 0.00 | 65 | 1003.0 |
| 20260505213606 | 58 | 144 | 0.0 | 0.0 | 0.00 | 0.00 | 0.00 | 64 | 1003.0 |
| 20260505213407 | 58 | 126 | 0.0 | 0.0 | 0.00 | 0.00 | 0.00 | 64 | 1003.0 |
| 20260505213207 | 58 | 180 | 5.0 | 5.0 | 0.00 | 0.00 | 0.00 | 64 | 1003.0 |
| 20260505213014 | 58 | 174 | 0.0 | 0.0 | 0.00 | 0.00 | 0.00 | 64 | 1003.0 |
| 20260505212807 | 58 | 204 | 5.0 | 5.0 | 0.00 | 0.00 | 0.00 | 64 | 1003.0 |
| 20260505212605 | 58 | 192 | 0.0 | 0.0 | 0.00 | 0.00 | 0.00 | 63 | 1003.0 |
| 20260505212406 | 58 | 108 | 5.0 | 5.0 | 0.00 | 0.00 | 0.00 | 63 | 1003.0 |
| 20260505212206 | 58 | 150 | 0.0 | 0.0 | 0.00 | 0.00 | 0.00 | 63 | 1003.0 |
| 20260505212011 | 59 | 114 | 6.0 | 6.0 | 0.00 | 0.00 | 0.00 | 63 | 1003.0 |
| 20260505211807 | 59 | 108 | 7.0 | 7.0 | 0.00 | 0.00 | 0.00 | 63 | 1003.0 |
| 20260505211043 | 58 | 83 | 7.0 | 7.0 | 0.00 | 0.00 | 0.00 | 62 | 1003.0 |
| 20260505210844 | 58 | 198 | 0.0 | 0.0 | 0.00 | 0.00 | 0.00 | 62 | 1003.0 |
| 20260505210139 | 58 | 138 | 5.0 | 5.0 | 0.00 | 0.00 | 0.00 | 63 | 1003.0 |
| 20260505205807 | 59 | 144 | 0.0 | 0.0 | 0.00 | 0.00 | 0.00 | 62 | 1003.0 |
| 20260505205607 | 59 | 100 | 5.0 | 5.0 | 0.00 | 0.00 | 0.00 | 62 | 1003.0 |
| 20260505205207 | 59 | 108 | 7.0 | 7.0 | 0.00 | 0.00 | 0.00 | 62 | 1003.0 |
| 20260505205031 | 59 | 42 | 0.0 | 0.0 | 0.00 | 0.00 | 0.00 | 62 | 1003.0 |
| 20260505204820 | 59 | 359 | 7.0 | 7.0 | 0.00 | 0.00 | 0.00 | 61 | 1003.0 |
| 20260505204624 | 59 | 192 | 9.0 | 9.0 | 0.00 | 0.00 | 0.00 | 61 | 1003.0 |
| 20260505204407 | 59 | 126 | 6.0 | 6.0 | 0.00 | 0.00 | 0.00 | 61 | 1003.0 |
| 20260505204012 | 59 | 114 | 9.0 | 9.0 | 0.00 | 0.00 | 0.00 | 61 | 1003.0 |
| 20260505203806 | 59 | 120 | 6.0 | 6.0 | 0.00 | 0.00 | 0.00 | 61 | 1003.0 |
| 20260505203610 | 59 | 120 | 6.0 | 6.0 | 0.00 | 0.00 | 0.00 | 61 | 1003.0 |
| 20260505203209 | 59 | 150 | 6.0 | 6.0 | 0.00 | 0.00 | 0.00 | 60 | 1003.0 |
| 20260505203019 | 59 | 90 | 6.0 | 6.0 | 0.00 | 0.00 | 0.00 | 60 | 1003.0 |
| 20260505202807 | 60 | 114 | 8.0 | 8.0 | 0.00 | 0.00 | 0.00 | 60 | 1003.0 |
| 20260505202607 | 60 | 120 | 8.0 | 8.0 | 0.00 | 0.00 | 0.00 | 60 | 1003.0 |
| 20260505202406 | 60 | 108 | 7.0 | 7.0 | 0.00 | 0.00 | 0.00 | 60 | 1003.0 |
| 20260505202207 | 60 | 168 | 5.0 | 5.0 | 0.00 | 0.00 | 0.00 | 60 | 1003.0 |
| 20260505202013 | 60 | 138 | 6.0 | 6.0 | 0.00 | 0.00 | 0.00 | 60 | 1002.0 |
| 20260505201807 | 60 | 162 | 8.0 | 8.0 | 0.00 | 0.00 | 0.00 | 60 | 1002.0 |
| 20260505201606 | 60 | 108 | 7.0 | 7.0 | 0.00 | 0.00 | 0.00 | 60 | 1002.0 |
| 20260505201406 | 60 | 114 | 7.0 | 7.0 | 0.00 | 0.00 | 0.00 | 60 | 1003.0 |
| 20260505201217 | 60 | 83 | 0.0 | 0.0 | 0.00 | 0.00 | 0.00 | 59 | 1003.0 |
| 20260505201011 | 60 | 185 | 6.0 | 6.0 | 0.00 | 0.00 | 0.00 | 59 | 1003.0 |
| 20260505200806 | 60 | 102 | 6.0 | 6.0 | 0.00 | 0.00 | 0.00 | 59 | 1003.0 |
| 20260505200606 | 60 | 114 | 7.0 | 7.0 | 0.00 | 0.00 | 0.00 | 59 | 1003.0 |
| 20260505200416 | 60 | 120 | 0.0 | 0.0 | 0.00 | 0.00 | 0.00 | 59 | 1003.0 |
| 20260505200206 | 60 | 120 | 7.0 | 7.0 | 0.00 | 0.00 | 0.00 | 58 | 1003.0 |
| 20260505200020 | 61 | 95 | 8.0 | 8.0 | 0.00 | 0.00 | 0.00 | 58 | 1003.0 |
| 20260505195809 | 61 | 96 | 0.0 | 0.0 | 0.00 | 0.00 | 0.00 | 58 | 1003.0 |
| 20260505195406 | 61 | 108 | 8.0 | 8.0 | 0.00 | 0.00 | 0.00 | 58 | 1003.0 |
| 20260505195208 | 61 | 126 | 7.0 | 7.0 | 0.00 | 0.00 | 0.00 | 58 | 1003.0 |
| 20260505195013 | 61 | 82 | 0.0 | 0.0 | 0.00 | 0.00 | 0.00 | 58 | 1003.0 |
| 20260505194807 | 61 | 144 | 5.0 | 5.0 | 0.00 | 0.00 | 0.00 | 58 | 1003.0 |
| 20260505194609 | 61 | 95 | 7.0 | 7.0 | 0.00 | 0.00 | 0.00 | 58 | 1003.0 |
| 20260505194407 | 61 | 114 | 7.0 | 7.0 | 0.00 | 0.00 | 0.00 | 58 | 1003.0 |
| 20260505194219 | 61 | 150 | 8.0 | 8.0 | 0.00 | 0.00 | 0.00 | 58 | 1003.0 |
| 20260505193806 | 61 | 126 | 5.0 | 5.0 | 0.00 | 0.00 | 0.00 | 57 | 1002.0 |
| 20260505193612 | 61 | 126 | 7.0 | 7.0 | 0.00 | 0.00 | 0.00 | 57 | 1002.0 |
| 20260505193410 | 61 | 93 | 15.0 | 17.0 | 0.00 | 0.00 | 0.00 | 57 | 1003.0 |
| 20260505193022 | 61 | 100 | 7.0 | 7.0 | 0.00 | 0.00 | 0.00 | 57 | 1003.0 |
| 20260505192806 | 61 | 102 | 8.0 | 8.0 | 0.00 | 0.00 | 0.00 | 57 | 1003.0 |
| 20260505192607 | 62 | 102 | 5.0 | 5.0 | 0.00 | 0.00 | 0.00 | 57 | 1003.0 |
| 20260505192409 | 62 | 108 | 6.0 | 6.0 | 0.00 | 0.00 | 0.00 | 56 | 1002.0 |
| 20260505192206 | 62 | 102 | 0.0 | 0.0 | 0.00 | 0.00 | 0.00 | 56 | 1002.0 |
| 20260505192023 | 62 | 108 | 5.0 | 5.0 | 0.00 | 0.00 | 0.00 | 56 | 1002.0 |
| 20260505191605 | 62 | 156 | 8.0 | 8.0 | 0.00 | 0.00 | 0.00 | 56 | 1002.0 |
| 20260505191406 | 62 | 150 | 6.0 | 6.0 | 0.00 | 0.00 | 0.00 | 56 | 1003.0 |
| 20260505191208 | 62 | 138 | 6.0 | 6.0 | 0.00 | 0.00 | 0.00 | 56 | 1003.0 |
| 20260505190807 | 62 | 151 | 5.0 | 5.0 | 0.00 | 0.00 | 0.00 | 56 | 1003.0 |
| 20260505190609 | 62 | 150 | 0.0 | 0.0 | 0.00 | 0.00 | 0.00 | 55 | 1003.0 |
| 20260505190406 | 62 | 162 | 0.0 | 0.0 | 0.00 | 0.00 | 0.00 | 55 | 1003.0 |
| 20260505190021 | 63 | 93 | 16.0 | 18.0 | 0.00 | 0.00 | 0.00 | 55 | 1003.0 |
| 20260505185807 | 63 | 150 | 6.0 | 6.0 | 0.00 | 0.00 | 0.00 | 55 | 1003.0 |
| 20260505185606 | 63 | 120 | 5.0 | 5.0 | 0.00 | 0.00 | 0.00 | 55 | 1003.0 |
| 20260505185406 | 63 | 102 | 5.0 | 5.0 | 0.00 | 0.00 | 0.00 | 55 | 1003.0 |
| 20260505185206 | 63 | 120 | 0.0 | 0.0 | 0.00 | 0.00 | 0.00 | 55 | 1003.0 |
| 20260505184807 | 63 | 150 | 5.0 | 5.0 | 0.00 | 0.00 | 0.00 | 54 | 1003.0 |
| 20260505184407 | 64 | 120 | 7.0 | 7.0 | 0.00 | 0.00 | 0.00 | 53 | 1002.0 |
| 20260505184207 | 64 | 101 | 6.0 | 6.0 | 0.00 | 0.00 | 0.00 | 53 | 1002.0 |
| 20260505184011 | 64 | 114 | 0.0 | 0.0 | 0.00 | 0.00 | 0.00 | 52 | 1003.0 |
| 20260505183807 | 64 | 139 | 8.0 | 8.0 | 0.00 | 0.00 | 0.00 | 52 | 1003.0 |
| 20260505183407 | 65 | 150 | 5.0 | 5.0 | 0.00 | 0.00 | 0.00 | 51 | 1002.0 |
| 20260505183207 | 65 | 126 | 6.0 | 6.0 | 0.00 | 0.00 | 0.00 | 51 | 1002.0 |
| 20260505182807 | 65 | 168 | 5.0 | 5.0 | 0.00 | 0.00 | 0.00 | 51 | 1002.0 |
| 20260505182605 | 65 | 132 | 5.0 | 5.0 | 0.00 | 0.00 | 0.00 | 50 | 1002.0 |
| 20260505182407 | 65 | 162 | 7.0 | 7.0 | 0.00 | 0.00 | 0.00 | 50 | 1002.0 |
| 20260505182207 | 65 | 132 | 8.0 | 8.0 | 0.00 | 0.00 | 0.00 | 50 | 1002.0 |
| 20260505181806 | 66 | 145 | 7.0 | 7.0 | 0.00 | 0.00 | 0.00 | 49 | 1003.0 |
| 20260505181407 | 66 | 116 | 6.0 | 6.0 | 0.00 | 0.00 | 0.00 | 49 | 1003.0 |
| 20260505181207 | 66 | 216 | 5.0 | 5.0 | 0.00 | 0.00 | 0.00 | 50 | 1003.0 |
| 20260505180807 | 66 | 97 | 8.0 | 8.0 | 0.00 | 0.00 | 0.00 | 49 | 1002.0 |
| 20260505180606 | 67 | 150 | 8.0 | 8.0 | 0.00 | 0.00 | 0.00 | 48 | 1002.0 |
| 20260505180019 | 67 | 108 | 7.0 | 7.0 | 0.00 | 0.00 | 0.00 | 48 | 1002.0 |
| 20260505175806 | 67 | 180 | 9.0 | 9.0 | 0.00 | 0.00 | 0.00 | 48 | 1002.0 |
| 20260505175606 | 67 | 63 | 0.0 | 0.0 | 0.00 | 0.00 | 0.00 | 48 | 1002.0 |
| 20260505175407 | 67 | 156 | 9.0 | 9.0 | 0.00 | 0.00 | 0.00 | 47 | 1002.0 |
| 20260505175207 | 67 | 144 | 8.0 | 8.0 | 0.00 | 0.00 | 0.00 | 47 | 1002.0 |
| 20260505175012 | 68 | 120 | 8.0 | 8.0 | 0.00 | 0.00 | 0.00 | 47 | 1002.0 |
| 20260505174606 | 68 | 138 | 9.0 | 9.0 | 0.00 | 0.00 | 0.00 | 46 | 1002.0 |
| 20260505174206 | 68 | 132 | 15.0 | 15.0 | 0.00 | 0.00 | 0.00 | 46 | 1002.0 |
| 20260505174010 | 69 | 145 | 6.0 | 6.0 | 0.00 | 0.00 | 0.00 | 46 | 1002.0 |
| 20260505173806 | 69 | 156 | 0.0 | 0.0 | 0.00 | 0.00 | 0.00 | 46 | 1002.0 |
| 20260505173647 | 69 | 102 | 0.0 | 0.0 | 0.00 | 0.00 | 0.00 | 45 | 1002.0 |
| 20260505173016 | 69 | 144 | 8.0 | 8.0 | 0.00 | 0.00 | 0.00 | 44 | 1002.0 |
| 20260505172806 | 69 | 144 | 7.0 | 7.0 | 0.00 | 0.00 | 0.00 | 44 | 1002.0 |
| 20260505172606 | 69 | 96 | 6.0 | 6.0 | 0.00 | 0.00 | 0.00 | 44 | 1002.0 |
| 20260505172407 | 70 | 156 | 9.0 | 9.0 | 0.00 | 0.00 | 0.00 | 44 | 1002.0 |
| 20260505172013 | 70 | 120 | 9.0 | 9.0 | 0.00 | 0.00 | 0.00 | 43 | 1002.0 |
| 20260505171808 | 70 | 132 | 0.0 | 0.0 | 0.00 | 0.00 | 0.00 | 43 | 1002.0 |
| 20260505171406 | 71 | 184 | 5.0 | 5.0 | 0.00 | 0.00 | 0.00 | 42 | 1002.0 |
| 20260505171206 | 71 | 144 | 6.0 | 6.0 | 0.00 | 0.00 | 0.00 | 42 | 1002.0 |
| 20260505171014 | 71 | 162 | 8.0 | 8.0 | 0.00 | 0.00 | 0.00 | 41 | 1002.0 |
| 20260505170607 | 72 | 162 | 6.0 | 6.0 | 0.00 | 0.00 | 0.00 | 41 | 1002.0 |
| 20260505170207 | 72 | 114 | 19.0 | 21.0 | 0.00 | 0.00 | 0.00 | 40 | 1002.0 |
| 20260505170019 | 72 | 222 | 8.0 | 8.0 | 0.00 | 0.00 | 0.00 | 40 | 1002.0 |
| 20260505165808 | 72 | 150 | 7.0 | 7.0 | 0.00 | 0.00 | 0.00 | 40 | 1002.0 |
| 20260505165606 | 72 | 173 | 7.0 | 7.0 | 0.00 | 0.00 | 0.00 | 40 | 1002.0 |
| 20260505165407 | 72 | 174 | 8.0 | 8.0 | 0.00 | 0.00 | 0.00 | 40 | 1002.0 |
| 20260505165011 | 73 | 178 | 7.0 | 7.0 | 0.00 | 0.00 | 0.00 | 39 | 1002.0 |
| 20260505164808 | 73 | 210 | 8.0 | 8.0 | 0.00 | 0.00 | 0.00 | 39 | 1002.0 |
| 20260505164606 | 73 | 156 | 14.0 | 14.0 | 0.00 | 0.00 | 0.00 | 38 | 1002.0 |
| 20260505164406 | 74 | 211 | 5.0 | 5.0 | 0.00 | 0.00 | 0.00 | 38 | 1002.0 |
| 20260505164207 | 74 | 196 | 7.0 | 7.0 | 0.00 | 0.00 | 0.00 | 37 | 1002.0 |
| 20260505164008 | 74 | 152 | 7.0 | 7.0 | 0.00 | 0.00 | 0.00 | 36 | 1002.0 |
| 20260505163807 | 75 | 158 | 14.0 | 14.0 | 0.00 | 0.00 | 0.00 | 36 | 1002.0 |
| 20260505163607 | 76 | 150 | 17.0 | 18.0 | 0.00 | 0.00 | 0.00 | 35 | 1002.0 |
| 20260505163206 | 77 | 178 | 9.0 | 9.0 | 0.00 | 0.00 | 0.00 | 34 | 1002.0 |
| 20260505163017 | 77 | 144 | 7.0 | 7.0 | 0.00 | 0.00 | 0.00 | 34 | 1002.0 |
| 20260505162807 | 77 | 78 | 8.0 | 8.0 | 0.00 | 0.00 | 0.00 | 33 | 1002.0 |
| 20260505162607 | 77 | 172 | 5.0 | 5.0 | 0.00 | 0.00 | 0.00 | 33 | 1002.0 |
| 20260505162407 | 77 | 210 | 6.0 | 6.0 | 0.00 | 0.00 | 0.00 | 32 | 1002.0 |
| 20260505162206 | 77 | 120 | 18.0 | 20.0 | 0.00 | 0.00 | 0.00 | 32 | 1002.0 |
| 20260505162009 | 78 | 47 | 9.0 | 9.0 | 0.00 | 0.00 | 0.00 | 31 | 1002.0 |
| 20260505161807 | 78 | 215 | 8.0 | 8.0 | 0.00 | 0.00 | 0.00 | 30 | 1002.0 |
| 20260505161607 | 78 | 146 | 7.0 | 7.0 | 0.00 | 0.00 | 0.00 | 29 | 1002.0 |
| 20260505161407 | 78 | 168 | 7.0 | 7.0 | 0.00 | 0.00 | 0.00 | 29 | 1002.0 |
| 20260505161012 | 78 | 132 | 8.0 | 8.0 | 0.00 | 0.00 | 0.00 | 29 | 1002.0 |
| 20260505160807 | 78 | 185 | 8.0 | 8.0 | 0.00 | 0.00 | 0.00 | 28 | 1002.0 |
| 20260505160607 | 79 | 132 | 6.0 | 6.0 | 0.00 | 0.00 | 0.00 | 28 | 1002.0 |
| 20260505160406 | 78 | 128 | 0.0 | 0.0 | 0.00 | 0.00 | 0.00 | 29 | 1002.0 |
| 20260505160207 | 78 | 150 | 8.0 | 8.0 | 0.00 | 0.00 | 0.00 | 28 | 1002.0 |
| 20260505153207 | 79 | 141 | 5.0 | 5.0 | 0.00 | 0.00 | 0.00 | 27 | 1003.0 |
| 20260505153015 | 79 | 186 | 16.0 | 17.0 | 0.00 | 0.00 | 0.00 | 27 | 1003.0 |
| 20260505152807 | 80 | 134 | 8.0 | 8.0 | 0.00 | 0.00 | 0.00 | 26 | 1003.0 |
| 20260505152606 | 79 | 198 | 6.0 | 6.0 | 0.00 | 0.00 | 0.00 | 27 | 1003.0 |
| 20260505152407 | 79 | 185 | 9.0 | 9.0 | 0.00 | 0.00 | 0.00 | 26 | 1003.0 |
| 20260505151807 | 78 | 158 | 14.0 | 14.0 | 0.00 | 0.00 | 0.00 | 26 | 1003.0 |
| 20260505151406 | 78 | 135 | 16.0 | 18.0 | 0.00 | 0.00 | 0.00 | 27 | 1003.0 |
| 20260505151012 | 78 | 162 | 8.0 | 8.0 | 0.00 | 0.00 | 0.00 | 28 | 1003.0 |
| 20260505150805 | 78 | 150 | 0.0 | 0.0 | 0.00 | 0.00 | 0.00 | 28 | 1003.0 |
| 20260505150405 | 79 | 140 | 8.0 | 8.0 | 0.00 | 0.00 | 0.00 | 28 | 1003.0 |
| 20260505150211 | 79 | 168 | 6.0 | 6.0 | 0.00 | 0.00 | 0.00 | 28 | 1003.0 |